| time (UTC) | temp C | wind direction | speed KPH | gust KPH | rain 1hr cm | rain 24hr cm | rain mn cm | humidity % | barometer mb |
| 20260902103051 | 27 | 34 | 4.8 | 14.5 | 0.00 | 0.10 | 0.00 | 84 | 1013.4 |
| 20260902101538 | 27 | 36 | 3.2 | 11.3 | 0.00 | 0.10 | 0.00 | 84 | 1013.6 |
| 20260902100017 | 27 | 84 | 1.6 | 14.5 | 0.00 | 0.10 | 0.00 | 84 | 1014.1 |
| 20260902094511 | 27 | 99 | 8.0 | 22.5 | 0.00 | 0.10 | 0.00 | 83 | 1014.2 |
| 20260902093101 | 28 | 70 | 6.4 | 25.7 | 0.00 | 0.10 | 0.00 | 83 | 1014.5 |
| 20260902091605 | 28 | 65 | 9.7 | 16.1 | 0.00 | 0.10 | 0.00 | 80 | 1014.3 |
| 20260902090135 | 28 | 76 | 4.8 | 11.3 | 0.00 | 0.10 | 0.00 | 81 | 1014.2 |
| 20260902084543 | 28 | 79 | 4.8 | 9.7 | 0.00 | 0.10 | 0.00 | 82 | 1014.4 |
| 20260902083017 | 29 | 118 | 8.0 | 11.3 | 0.00 | 0.10 | 0.00 | 81 | 1014.6 |
| 20260902081558 | 29 | 36 | 3.2 | 6.4 | 0.00 | 0.10 | 0.00 | 82 | 1014.7 |
| 20260902080143 | 30 | 25 | 3.2 | 6.4 | 0.00 | 0.10 | 0.00 | 82 | 1014.7 |
| 20260902074514 | 30 | 5 | 1.6 | 6.4 | 0.00 | 0.10 | 0.00 | 81 | 1014.5 |
| 20260902073110 | 30 | 343 | 0.0 | 3.2 | 0.00 | 0.10 | 0.00 | 80 | 1014.3 |
| 20260902071557 | 30 | 343 | 0.0 | 3.2 | 0.00 | 0.10 | 0.00 | 82 | 1014.3 |
| 20260902070134 | 30 | 342 | 0.0 | 3.2 | 0.10 | 0.10 | 0.00 | 81 | 1014.4 |
| 20260902064614 | 30 | 346 | 1.6 | 4.8 | 0.10 | 0.10 | 0.10 | 84 | 1014.3 |
| 20260902063050 | 29 | 272 | 1.6 | 4.8 | 0.10 | 0.10 | 0.10 | 83 | 1014.7 |
| 20260902061544 | 30 | 246 | 3.2 | 8.0 | 0.10 | 0.10 | 0.10 | 83 | 1014.9 |
| 20260902060139 | 31 | 340 | 0.0 | 3.2 | 0.00 | 0.00 | 0.00 | 76 | 1014.9 |
| 20260902054525 | 31 | 340 | 1.6 | 4.8 | 0.00 | 0.00 | 0.00 | 76 | 1015.0 |
| 20260902053012 | 31 | 340 | 1.6 | 4.8 | 0.00 | 0.00 | 0.00 | 75 | 1014.9 |
| 20260902051510 | 31 | 340 | 0.0 | 4.8 | 0.00 | 0.00 | 0.00 | 75 | 1014.8 |
| 20260902050158 | 31 | 292 | 1.6 | 6.4 | 0.00 | 0.00 | 0.00 | 74 | 1014.7 |
| 20260902044555 | 31 | 290 | 4.8 | 11.3 | 0.00 | 0.00 | 0.00 | 73 | 1014.5 |
| 20260902043054 | 31 | 297 | 3.2 | 11.3 | 0.00 | 0.00 | 0.00 | 74 | 1014.5 |
| 20260902041550 | 31 | 293 | 3.2 | 8.0 | 0.00 | 0.00 | 0.00 | 74 | 1014.3 |
| 20260902040136 | 31 | 289 | 3.2 | 8.0 | 0.00 | 0.00 | 0.00 | 74 | 1014.3 |
| 20260902034537 | 31 | 269 | 3.2 | 11.3 | 0.00 | 0.00 | 0.00 | 73 | 1014.1 |
| 20260902033013 | 31 | 281 | 4.8 | 11.3 | 0.00 | 0.00 | 0.00 | 73 | 1013.9 |
| 20260902031603 | 31 | 277 | 3.2 | 11.3 | 0.00 | 0.00 | 0.00 | 73 | 1013.5 |
| 20260902030148 | 31 | 302 | 6.4 | 16.1 | 0.00 | 0.00 | 0.00 | 74 | 1013.1 |
| 20260902024513 | 31 | 265 | 6.4 | 14.5 | 0.00 | 0.00 | 0.00 | 74 | 1012.9 |
| 20260902023104 | 31 | 304 | 8.0 | 17.7 | 0.00 | 0.00 | 0.00 | 76 | 1012.6 |
| 20260902021551 | 31 | 265 | 4.8 | 14.5 | 0.00 | 0.00 | 0.00 | 76 | 1012.5 |
| 20260902020135 | 31 | 271 | 3.2 | 12.9 | 0.00 | 0.00 | 0.00 | 76 | 1012.2 |
| 20260902014523 | 31 | 287 | 4.8 | 12.9 | 0.00 | 0.00 | 0.00 | 75 | 1011.9 |
| 20260902013007 | 31 | 265 | 8.0 | 16.1 | 0.00 | 0.00 | 0.00 | 74 | 1011.7 |
| 20260902011601 | 31 | 244 | 6.4 | 16.1 | 0.00 | 0.00 | 0.00 | 74 | 1011.3 |
| 20260902010142 | 31 | 254 | 8.0 | 16.1 | 0.00 | 0.00 | 0.00 | 73 | 1011.1 |
| 20260902004521 | 31 | 263 | 8.0 | 17.7 | 0.00 | 0.00 | 0.00 | 71 | 1011.0 |
| 20260902003015 | 32 | 268 | 8.0 | 17.7 | 0.00 | 0.00 | 0.00 | 72 | 1010.8 |
| 20260902001600 | 32 | 248 | 9.7 | 19.3 | 0.00 | 0.00 | 0.00 | 70 | 1010.7 |
| 20260902000037 | 32 | 254 | 8.0 | 14.5 | 0.00 | 0.00 | 0.00 | 70 | 1010.6 |
| 20260901234510 | 32 | 282 | 8.0 | 16.1 | 0.00 | 0.00 | 0.00 | 70 | 1010.4 |
| 20260901233010 | 32 | 236 | 9.7 | 19.3 | 0.00 | 0.00 | 0.00 | 69 | 1010.3 |
| 20260901231601 | 32 | 257 | 8.0 | 17.7 | 0.00 | 0.00 | 0.00 | 69 | 1010.3 |
| 20260901230145 | 33 | 274 | 8.0 | 17.7 | 0.00 | 0.00 | 0.00 | 67 | 1010.0 |
| 20260901224513 | 33 | 282 | 6.4 | 22.5 | 0.00 | 0.00 | 0.00 | 67 | 1010.0 |
| 20260901223055 | 33 | 249 | 9.7 | 22.5 | 0.00 | 0.00 | 0.00 | 67 | 1010.0 |
| 20260901221537 | 32 | 263 | 14.5 | 24.1 | 0.00 | 0.00 | 0.00 | 69 | 1010.0 |
| 20260901220131 | 33 | 244 | 9.7 | 19.3 | 0.00 | 0.00 | 0.00 | 69 | 1010.2 |
| 20260901214514 | 33 | 283 | 9.7 | 16.1 | 0.00 | 0.00 | 0.00 | 71 | 1010.3 |
| 20260901213005 | 32 | 234 | 11.3 | 17.7 | 0.00 | 0.00 | 0.00 | 70 | 1010.6 |
| 20260901211554 | 33 | 231 | 9.7 | 22.5 | 0.00 | 0.00 | 0.00 | 69 | 1010.8 |
| 20260901210145 | 33 | 270 | 11.3 | 22.5 | 0.00 | 0.00 | 0.00 | 69 | 1011.0 |
| 20260901204524 | 33 | 240 | 11.3 | 24.1 | 0.00 | 0.00 | 0.00 | 68 | 1011.2 |
| 20260901203009 | 33 | 222 | 12.9 | 20.9 | 0.00 | 0.00 | 0.00 | 65 | 1011.4 |
| 20260901201556 | 33 | 202 | 9.7 | 22.5 | 0.00 | 0.00 | 0.00 | 63 | 1011.7 |
| 20260901200036 | 33 | 227 | 11.3 | 22.5 | 0.00 | 0.00 | 0.00 | 60 | 1011.8 |
| 20260901194559 | 33 | 221 | 8.0 | 19.3 | 0.00 | 0.00 | 0.00 | 62 | 1012.0 |
| 20260901193050 | 34 | 244 | 11.3 | 17.7 | 0.00 | 0.00 | 0.00 | 57 | 1012.2 |
| 20260901191538 | 34 | 233 | 9.7 | 17.7 | 0.00 | 0.00 | 0.00 | 57 | 1012.4 |
| 20260901190139 | 33 | 284 | 9.7 | 16.1 | 0.00 | 0.00 | 0.00 | 61 | 1012.6 |
| 20260901184549 | 33 | 258 | 8.0 | 16.1 | 0.00 | 0.00 | 0.00 | 62 | 1012.6 |
| 20260901183045 | 33 | 213 | 6.4 | 14.5 | 0.00 | 0.00 | 0.00 | 64 | 1012.8 |
| 20260901181546 | 33 | 221 | 6.4 | 17.7 | 0.00 | 0.00 | 0.00 | 65 | 1013.0 |
| 20260901180016 | 33 | 202 | 8.0 | 16.1 | 0.00 | 0.00 | 0.00 | 66 | 1013.1 |
| 20260901174502 | 33 | 259 | 8.0 | 16.1 | 0.00 | 0.00 | 0.00 | 67 | 1013.1 |
| 20260901173058 | 33 | 246 | 6.4 | 14.5 | 0.00 | 0.00 | 0.00 | 64 | 1013.1 |
| 20260901171551 | 33 | 360 | 1.6 | 6.4 | 0.00 | 0.00 | 0.00 | 60 | 1013.2 |
| 20260901170201 | 32 | 57 | 1.6 | 4.8 | 0.00 | 0.00 | 0.00 | 61 | 1013.2 |
| 20260901164526 | 32 | 296 | 3.2 | 6.4 | 0.00 | 0.00 | 0.00 | 64 | 1013.3 |
| 20260901163019 | 32 | 44 | 0.0 | 4.8 | 0.00 | 0.00 | 0.00 | 64 | 1013.4 |
| 20260901161611 | 31 | 55 | 3.2 | 6.4 | 0.00 | 0.00 | 0.00 | 64 | 1013.5 |
| 20260901160003 | 31 | 346 | 0.0 | 8.0 | 0.00 | 0.00 | 0.00 | 72 | 1013.5 |
| 20260901154557 | 31 | 59 | 0.0 | 6.4 | 0.00 | 0.00 | 0.00 | 70 | 1013.4 |
| 20260901153025 | 30 | 30 | 0.0 | 6.4 | 0.00 | 0.00 | 0.00 | 73 | 1013.6 |
| 20260901151509 | 30 | 53 | 1.6 | 6.4 | 0.00 | 0.00 | 0.00 | 77 | 1013.5 |
| 20260901150153 | 29 | 45 | 4.8 | 9.7 | 0.00 | 0.00 | 0.00 | 79 | 1013.5 |
| 20260901144537 | 29 | 28 | 4.8 | 8.0 | 0.00 | 0.05 | 0.00 | 79 | 1013.3 |
| 20260901143018 | 28 | 18 | 4.8 | 9.7 | 0.00 | 0.05 | 0.00 | 82 | 1013.3 |
| 20260901141555 | 28 | 11 | 4.8 | 8.0 | 0.00 | 0.05 | 0.00 | 84 | 1013.4 |
| 20260901140140 | 27 | 25 | 3.2 | 6.4 | 0.00 | 0.05 | 0.00 | 84 | 1013.4 |
| 20260901134530 | 27 | 30 | 1.6 | 6.4 | 0.00 | 0.05 | 0.00 | 86 | 1013.4 |
| 20260901133022 | 27 | 31 | 3.2 | 6.4 | 0.00 | 0.05 | 0.00 | 87 | 1013.3 |
| 20260901131615 | 26 | 27 | 3.2 | 8.0 | 0.00 | 0.05 | 0.00 | 89 | 1013.2 |
| 20260901131511 | 26 | 27 | 4.8 | 8.0 | 0.00 | 0.05 | 0.00 | 89 | 1013.3 |
| 20260901130149 | 26 | 48 | 3.2 | 8.0 | 0.00 | 0.05 | 0.00 | 89 | 1013.2 |
| 20260901124533 | 27 | 351 | 3.2 | 6.4 | 0.00 | 0.05 | 0.00 | 88 | 1012.8 |
| 20260901123012 | 27 | 5 | 1.6 | 4.8 | 0.00 | 0.05 | 0.00 | 87 | 1012.6 |
| 20260901121552 | 27 | 42 | 0.0 | 3.2 | 0.00 | 0.05 | 0.00 | 87 | 1012.6 |
| 20260901120138 | 27 | 42 | 1.6 | 4.8 | 0.00 | 0.05 | 0.00 | 88 | 1012.6 |
| 20260901114525 | 27 | 28 | 0.0 | 6.4 | 0.00 | 0.05 | 0.00 | 89 | 1012.6 |
| 20260901113012 | 27 | 15 | 1.6 | 6.4 | 0.00 | 0.05 | 0.00 | 88 | 1012.7 |
| 20260901111552 | 27 | 22 | 3.2 | 8.0 | 0.00 | 0.05 | 0.00 | 88 | 1012.7 |
| 20260901110148 | 27 | 20 | 4.8 | 8.0 | 0.00 | 0.05 | 0.00 | 87 | 1012.8 |
| 20260901104531 | 27 | 360 | 3.2 | 8.0 | 0.00 | 0.05 | 0.00 | 85 | 1012.8 |